Regional Weather Roundup
Issued by NWS Newport/Morehead, NC

Current Version | Previous Version | Graphics & Text | Print | Product List | Glossary Off
Versions: 1 2 3 4 5 6 7 8 9 10 11 12 13 14 15 16 17 18 19 20 21 22 23 24 25 26 27 28 29 30 31 32 33 34 35 36 37 38 39 40 41 42 43 44 45 46 47 48 49 50

000
ASUS42 KMHX 012324
RWRMHX
WEATHER ROUNDUP FOR EASTERN NORTH CAROLINA
NATIONAL WEATHER SERVICE NEWPORT/MOREHEAD CITY NC
700 PM EDT WED APR 01 2015

NOTE: "FAIR" INDICATES FEW OR NO CLOUDS BELOW 12,000 FEET
WITH NO SIGNIFICANT WEATHER AND/OR OBSTRUCTIONS TO VISIBILITY

NCZ015>017-031-032-045>047-102-103-020000-
NORTH COAST

CITY           SKY/WX    TMP DP  RH WIND       PRES   REMARKS
EDENTON        CLEAR     49  36  61 E9        30.21R
ELIZABETH CITY CLEAR     48  32  53 E7        30.21R
KITTY HAWK     CLEAR     43  33  67 E3        30.22R
MANTEO         CLEAR     43  32  65 E7        30.24R

$$

NCZ045>047-081-094-103-104-020000-
CENTRAL COAST

CITY           SKY/WX    TMP DP  RH WIND       PRES   REMARKS
FRISCO         CLEAR     44  30  57 NE6       30.22R
SWANQUARTER      N/A     52 N/A N/A NE9       30.18R

$$

NCZ095-097-098-100-101-020000-
SOUTHERN COAST

CITY           SKY/WX    TMP DP  RH WIND       PRES   REMARKS
BEAUFORT       CLEAR     53  39  59 NE8       30.19R
CEDAR ISLAND     N/A     50 N/A N/A NE10G25   30.24S
JACKSONVILLE   CLEAR     57  41  55 S9        30.16R
PINEY ISLAND   CLEAR    N/A N/A N/A NE16G22   30.19R
WILMINGTON     CLEAR     57  43  59 E10       30.17R


$$

NCZ011>013-027>030-043-044-078>080-089-090>093-098-020000-
COASTAL PLAIN

CITY           SKY/WX    TMP DP  RH WIND       PRES   REMARKS
AHOSKIE        CLEAR     56  25  29 CALM      30.19R
CLINTON        CLEAR     63  36  36 E5        30.16R
ELIZABETHTOWN  CLEAR     63  35  34 CALM      30.16R
GOLDSBORO      CLEAR     61  34  36 E7        30.15R
GREENVILLE     CLEAR     61  30  31 NE5       30.19R
HAVELOCK       CLEAR     55  36  48 NE12      30.19R
KENANSVILLE    CLEAR     59  30  33 CALM      30.18R
KINSTON        CLEAR     59  30  33 NE8       30.18R
NEW BERN       CLEAR     59  30  33 E9        30.19R
RICHLANDS      CLEAR     61  28  29 N5        30.18R
ROCKY MOUNT    CLEAR     61  30  31 SE3       30.17R
WASHINGTON     CLEAR     56  31  38 E9        30.19R
WHITEVILLE     CLEAR     65  35  32 NE7       30.14R

$$

AMZ130-135-150-152-154-156-158-170-250-252-270-ANZ085-086-088-633-658-670-020000-
MARINE OBSERVATIONS

STATION/POSITION TIME  TEMP    WIND        PRES    WAVE   SWELL
                       AIR SEA DIR/SP/G            HT/PER HT/PER
                 (UTC) (F)     (DEG/KT/KT) (MB)    (FT/S) (FT/S)
CHESAPEAKE LIGHT 2300   42     150/  6/  6 1024.0
64 E VA BEACH    2250   46 53  350/  8/ 10 1022.6    4/ 7   3/ 7
DUCK             2300   44 44  110/  5/  7 1022.8
2 E DUCK         2211      43                N/A     4/ 7
10 NE DUCK       NOT AVBL
OREGON INLET     2300   43 47   30/  7/ 10 1023.6
HATTERAS CG      2300   46 57   60/  7/ 11 1023.8
CAPE LOOKOUT     2300   53      40/ 16/ 18 1022.1
BEAUFORT LAB     2300   54 55   40/  7/ 12 1021.4
27 SE WRIGHTSVLE 2300   54 64   70/ 17/ 19 1023.1
5 SE WRIGHTSVLE  2300   56 56   90/ 16/ 17 1021.4
225 S CAPE HAT   2250   66 69   30/ 19/ 21 1018.6    6/ 7   3/12
41 SE CHARLESTON 2250   64 69   60/ 17/ 21 1019.3    6/ 7   2/11

$$



USA.gov is the U.S. government's official web portal to all federal, state and local government web resources and services.